Location: Academy at Carrie F Thomas
(32.8490°N, 97.2053°W)
Time: 01:35:10
(UTC+00:00)

GPS 2-04 Rocket1 - Pass Details

Date: 08 December 2021
Orbit: 412 x 532 km, 35.6° (Epoch: 28 January)

Event Time Altitude Azimuth Distance (km) Brightness Sun altitude
Rises 23:41:01 0° 285° (WNW) 2,653 7.2 -4.3°
Reaches altitude 10° 23:43:15 10° 283° (WNW) 1,773 6.3 -4.8°
Maximum altitude 23:47:20 69° 200° (SSW) 573 3.1 -5.6°
Drops below altitude 10° 23:51:25 10° 117° (ESE) 1,776 5.0 -6.3°
Sets 23:53:40 0° 115° (ESE) 2,659 5.9 -6.8°
